Weather in Buchalki

Russia / Tula Oblast     53°45′21″N   38°46′26″E
temp.,
°C
wind,
m/s
gust,
m/s
humid.,
%
clouds,
%
prec.,
mm/h
press.,
hPa
HPBL,
m
7 july, thu
thu700:00+19s3582100 0.3 101480
03:00+18s3789100 0.6 1014120
06:00+19s41088100 0.0 1014219
09:00+23s5866100 0.0 1014326
12:00+28s67510 0.0 1014927
15:00+29s674730 0.0 10141458
18:00+28s3659100 0.0 1013318
21:00+23sse34742 0.0 101458
8 july, fri
fri800:00+19w38910 0.7 1015195
03:00+17w22950 0.7 101518
06:00+18nnw22932 0.0 1016109
09:00+23sw127551 0.0 1016513
12:00+26sw235762 0.0 10161273
15:00+28sw3451100 0.0 10151758
18:00+25nw34679 0.5 1015209
21:00+20n358746 2.3 101567
9 july, sat
sat900:00+17e2396100 3.6 101560
03:00+17n1192100 4.1 101511
06:00+18e1290100 0.6 101565
09:00+22e2275100 0.7 1014378
12:00+26se3359100 0.0 1014975
15:00+27se235191 0.0 10121625
18:00+17sw8158934 0.9 1013443
21:00+17nw1190100 3.1 101221
10 july, sun
sun1000:00+15e349263 0.0 101181
03:00+15sse3795100 0.3 1012146
06:00+17sse128747 0.0 101184
09:00+21ese347360 0.0 1010438
12:00+25se565620 0.0 1010883
15:00+27sse574957 0.0 10101337
18:00+21ne227954 1.0 100940
21:00+19e347711 1.1 101068
11 july, mon
mon1100:00+18ese5157982 0.0 1009297
03:00+18e51283100 0.2 1009246
06:00+18ese41181100 0.0 1008331
09:00+19e61276100 0.1 1007467
12:00+23ese71264100 0.0 1006979
15:00+22se111674100 0.5 1007894
18:00+21se81678100 0.0 10091072
21:00+20se8166980 0.2 1008647